Hourly Data Report for March 22, 2012

All times are specified in Local Standard Time (LST). Add 1 hour to adjust for Daylight Saving Time where and when it is observed.

MIRAMICHI RCS
NEW BRUNSWICK

47°00'34.000" N
65°27'54.000" W
33.00 m
8100989
71744
ACQ

Download Data

Hourly Data (March 2012)
Hourly Data Report for March 22, 2012
TIME Temp Definition
°C
Dew Point Temp Definition
°C
Rel Hum Definition
%
Wind Dir Definition
10's deg

Wind Spd Definition
km/h
Visibility Definition
km
Stn Press Definition
kPa
Hmdx Definition


Wind Chill Definition


Weather Definition


00:00 14.7 8.9 68 26 15   101.14     LegendNANA
01:00 15.5 9.1 66 25 15   101.10     LegendNANA
02:00 14.1 8.5 69 26 13   101.05     LegendNANA
03:00 14.2 8.9 70 26 11   101.02     LegendNANA
04:00 15.1 9.6 70 26 15   100.97     LegendNANA
05:00 15.0 9.5 70 25 13   100.94     LegendNANA
06:00 15.0 9.7 71 25 15   100.88     LegendNANA
07:00 14.7 9.6 71 24 15   100.86     LegendNANA
08:00 15.8 9.8 67 25 15   100.81     LegendNANA
09:00 17.6 10.2 62 25 17   100.78     LegendNANA
10:00 19.5 10.8 57 24 13   100.72     LegendNANA
11:00 23.2 10.7 45 28 17   100.64 25   LegendNANA
12:00 23.8 10.5 43 26 20   100.56 25   LegendNANA
13:00 24.6 9.7 39 28 22   100.54 26   LegendNANA
14:00 24.0 9.0 38 28 24   100.47 25   LegendNANA
15:00 24.3 8.7 37 27 19   100.44 25   LegendNANA
16:00 22.7 5.4 33 29 20   100.42     LegendNANA
17:00 21.2 3.2 31 28 24   100.42     LegendNANA
18:00 19.4 4.4 37 28 19   100.48     LegendNANA
19:00 17.2 1.4 34 30 17   100.58     LegendNANA
20:00 15.2 1.4 39 29 17   100.63     LegendNANA
21:00 14.1 2.1 44 28 13   100.69     LegendNANA
22:00 13.2 -0.1 40 30 13   100.73     LegendNANA
23:00 12.1 -2.9 35 30 11   100.77     LegendNANA

Notes on Data Quality.

Legend

  • E = Estimated
  • M = Missing
  • NA = Not Available
Date modified: